This demonstration page uses our WeatherBlox Daily Observations layout. Learn more.

Left ArrowRight Arrow

39.51506, -84.39828

Hourly Observations for April 26, 2016

Temp ( °F °C ) Dew Point ( °F °C ) Humidity (%) Winds ( mph kmh ) Pressure ( in mb ) Visibility ( mi km ) Precip ( " mm )
12:15 am 00:15 Clear 64 17.6 48 9 57 57 undefined N/A 29.80 1009 10 16 N/A
12:35 am 00:35 Clear 62 16.6 48 8.9 61 61 undefined N/A 29.77 1008 10 16 N/A
12:55 am 00:55 Clear 62 16.5 48 9 61 61 SW 5 7 29.77 1008 10 16 N/A
1:15 am 01:15 Clear 60 15.3 49 9.5 69 69 SW 6 9 29.77 1008 10 16 N/A
1:35 am 01:35 Clear 62 16.5 48 9 61 61 undefined N/A 29.77 1008 10 16 N/A
1:55 am 01:55 Clear 61 16.1 48 8.7 62 62 SSW 6 9 29.77 1008 10 16 N/A
2:15 am 02:15 Clear 62 16.4 48 9.1 62 62 undefined N/A 29.77 1008 10 16 N/A
2:35 am 02:35 Clear 64 17.9 49 9.2 57 57 SSW 6 9 29.77 1008 10 16 N/A
2:55 am 02:55 Clear 63 17 48 9.1 60 60 undefined N/A 29.77 1008 10 16 N/A
3:15 am 03:15 Clear 64 17.5 49 9.3 59 59 undefined N/A 29.77 1008 10 16 N/A
3:35 am 03:35 Clear 63 17.3 49 9.2 59 59 SW 6 9 29.77 1008 10 16 N/A
3:55 am 03:55 Clear 62 16.6 48 8.8 60 60 SW 6 9 29.77 1008 10 16 N/A
4:15 am 04:15 Clear 62 16.6 49 9.3 62 62 SW 6 9 29.77 1008 10 16 N/A
4:35 am 04:35 Clear 61 16 48 9 63 63 SW 5 7 29.77 1008 10 16 N/A
4:55 am 04:55 Clear 61 16.3 48 9.1 63 63 SW 3 6 29.80 1009 10 16 N/A
5:15 am 05:15 Partly Cloudy 62 16.6 49 9.2 62 62 SW 6 9 29.80 1009 10 16 N/A
5:35 am 05:35 Partly Cloudy 62 16.6 49 9.6 64 64 SW 6 9 29.80 1009 10 16 N/A
5:55 am 05:55 Mostly Cloudy 62 16.6 49 9.6 64 64 WSW 5 7 29.80 1009 10 16 N/A
6:15 am 06:15 Partly Cloudy 62 16.5 49 9.4 63 63 SW 5 7 29.80 1009 10 16 N/A
6:35 am 06:35 Clear 62 16.8 49 9.5 62 62 SW 6 9 29.80 1009 10 16 N/A
6:55 am 06:55 Sunny 62 16.6 50 10.1 66 66 SW 6 9 29.80 1009 10 16 N/A
7:15 am 07:15 Sunny 62 16.6 50 10.2 66 66 undefined N/A 29.80 1009 10 16 N/A
7:35 am 07:35 Sunny 62 16.6 51 10.4 67 67 SW 6 9 29.80 1009 10 16 N/A
7:55 am 07:55 Sunny 64 18 52 11.1 64 64 SW 7 11 29.80 1009 10 16 N/A
8:15 am 08:15 Sunny 68 20.1 54 12.2 61 61 SW 9 15 29.80 1009 10 16 N/A
8:35 am 08:35 Sunny 69 20.8 55 12.6 60 60 SW 8 13 29.83 1010 10 16 N/A
8:55 am 08:55 Sunny 69 20.8 54 12 57 57 SW 8 13 29.80 1009 10 16 N/A
9:15 am 09:15 Sunny 72 22 55 12.7 56 56 SW 8 13 29.80 1009 10 16 N/A
9:35 am 09:35 Sunny 74 23.6 57 13.8 54 54 WSW 8 13 29.80 1009 10 16 N/A
9:55 am 09:55 Sunny 74 23.6 56 13.4 53 53 SW 12 19 29.80 1009 10 16 N/A
10:15 am 10:15 Sunny 74 23.6 55 13 52 52 WSW 13 20 29.80 1009 10 16 N/A
10:35 am 10:35 Partly Cloudy 77 25.1 58 14.3 51 51 WSW 12 19 29.80 1009 10 16 N/A
10:55 am 10:55 Mostly Cloudy 77 25.1 57 13.7 49 49 W 14 22 29.83 1010 10 16 N/A
11:15 am 11:15 Mostly Cloudy 77 25.1 58 14.2 51 51 WSW 9 15 29.80 1009 10 16 N/A
11:35 am 11:35 Cloudy 77 25.1 58 14.5 52 52 WNW 9 15 29.80 1009 10 16 N/A
11:55 am 11:55 Cloudy 77 25.1 58 14.2 51 51 WNW 8 13 29.80 1009 10 16 N/A
12:15 pm 12:15 Cloudy 77 25.1 57 13.9 50 50 W 8 13 29.80 1009 10 16 N/A
12:35 pm 12:35 Cloudy 77 25.1 57 14 50 50 WNW 6 9 29.80 1009 10 16 N/A
12:55 pm 12:55 Cloudy 77 25.1 57 14.1 51 51 WSW 7 11 29.80 1009 10 16 N/A
1:15 pm 13:15 Mostly Cloudy 80 26.5 58 14.6 48 48 SW 7 11 29.77 1008 10 16 N/A
1:35 pm 13:35 Mostly Cloudy 80 26.5 57 13.7 45 45 WSW 10 17 29.77 1008 10 16 N/A
1:55 pm 13:55 Mostly Cloudy 80 26.5 56 13.6 45 45 WSW 7 11 29.74 1007 10 16 N/A
2:15 pm 14:15 Mostly Cloudy 80 26.5 56 13.6 45 45 SW 8 13 29.74 1007 10 16 N/A
2:35 pm 14:35 Cloudy 77 25.1 58 14.6 52 52 SW 8 13 29.77 1008 10 16 N/A
2:55 pm 14:55 Mostly Cloudy with Light Rain 77 25.1 59 15.2 54 54 WSW 8 13 29.77 1008 10 16 N/A
3:15 pm 15:15 Partly Cloudy 77 25.1 60 15.4 55 55 N N/A 29.77 1008 10 16 N/A
3:35 pm 15:35 Partly Cloudy 77 25.1 59 15 54 54 W 9 15 29.77 1008 10 16 N/A
3:55 pm 15:55 Sunny 77 25.1 60 15.4 55 55 SW 12 19 29.77 1008 10 16 N/A
4:15 pm 16:15 Mostly Cloudy with Light Rain 74 23.6 58 14.4 56 56 W 7 11 29.77 1008 10 16 N/A
4:35 pm 16:35 Cloudy with Heavy Rain 74 23.1 60 15.4 62 62 NW 16 26 29.77 1008 10 16 N/A
4:55 pm 16:55 Mostly Cloudy 70 21.3 59 15.1 68 68 WNW 5 7 29.77 1008 10 16 N/A
5:15 pm 17:15 Sunny 71 21.4 60 15.5 69 69 undefined N/A 29.77 1008 10 16 N/A
5:35 pm 17:35 Sunny 74 23.6 62 16.6 65 65 W 7 11 29.74 1007 10 16 N/A
5:55 pm 17:55 Partly Cloudy 74 23.6 61 16.1 63 63 WNW 10 17 29.74 1007 10 16 N/A
6:15 pm 18:15 Mostly Cloudy with Light Rain 74 23.1 62 16.8 68 68 undefined N/A 29.74 1007 10 16 N/A
6:35 pm 18:35 Mostly Cloudy 74 23.3 59 15.1 60 60 undefined N/A 29.74 1007 10 16 N/A
6:55 pm 18:55 Mostly Cloudy 70 21.1 56 13.3 61 61 NNW 7 11 29.74 1007 10 16 N/A
7:15 pm 19:15 Cloudy with Light Rain 70 21.1 57 13.7 63 63 undefined N/A 29.77 1008 10 16 N/A
7:35 pm 19:35 Cloudy with Rain 69 20.8 61 15.9 74 74 N 14 22 29.77 1008 10 16 N/A
7:55 pm 19:55 Cloudy with Rain 69 20.8 62 16.5 77 77 undefined N/A 29.77 1008 7 11 N/A
8:15 pm 20:15 Cloudy with Light Rain 67 19.5 60 15.6 78 78 E 12 19 29.74 1007 4 6 N/A
8:35 pm 20:35 Hazy 66 19 59 15.2 79 79 N 12 19 29.77 1008 5 8 N/A
8:55 pm 20:55 Mostly Cloudy with Haze 64 18 58 14.2 79 79 undefined N/A 29.80 1009 5 8 N/A
9:15 pm 21:15 Cloudy with Haze 63 17.2 56 13.3 78 78 N 8 13 29.80 1009 5 8 N/A
9:35 pm 21:35 Cloudy with Haze 62 16.6 55 12.7 78 78 NNE 8 13 29.80 1009 5 8 N/A
9:55 pm 21:55 Cloudy with Haze 62 16.6 55 12.6 77 77 NNE 10 17 29.80 1009 5 8 N/A
10:15 pm 22:15 Cloudy with Light Rain 62 16.6 55 12.6 77 77 NNE 7 11 29.83 1010 5 8 N/A
10:35 pm 22:35 Cloudy with Light Rain 61 16 54 12 77 77 NE 7 11 29.83 1010 4 6 N/A
10:55 pm 22:55 Cloudy with Light Rain 60 15.6 53 11.6 77 77 ENE 7 11 29.83 1010 5 8 N/A
11:15 pm 23:15 Cloudy with Rain 60 15.3 53 11.5 78 78 undefined N/A 29.85 1011 5 8 N/A
11:35 pm 23:35 Cloudy with Light Rain 60 15.3 53 11.5 78 78 undefined N/A 29.83 1010 4 6 N/A
11:55 pm 23:55 Cloudy with Light Rain 60 15.3 53 11.6 79 79 ENE 7 11 29.83 1010 4 6 N/A

Powered by AerisWeather